Location: Unspecified
(17.6330°N, 0.0000°E)
Time: 22:14:10
(UTC+00:00)

S-56A Canister/Altair - Pass Details

Date: 26 June 2019
Orbit: 632 x 2500 km, 38.9° (Epoch: 14 July)

Event Time Altitude Azimuth Distance (km) Brightness Sun altitude
Rises 19:41:24 0° 317° (NW) 3,765 12.6 -14.2°
Reaches altitude 10° 19:44:58 10° 331° (NNW) 2,530 11.1 -14.9°
Maximum altitude 19:49:22 22° 23° (NNE) 1,558 9.2 -15.8°
Enters shadow 19:52:25 13° 69° (ENE) 1,904 9.2 -16.4°
Drops below altitude 10° 19:53:03 10° 75° (ENE) 2,074 - -16.5°
Sets 19:55:39 0° 92° (E) 2,920 - -17.1°
